[[{"header":{"parameterUnit":"m.s-1","parameterCategory":1,"la1":30.2991,"la2":30.254,"lo1":-89.0895,"lo2":-89.0444,"dy":0.0017,"dx":0.0017,"nx":28,"ny":28,"refTime":"2023-08-22T21:00:00:Z","depth":0,"parameterNumber":2,"parameterNumberName":"U-component_of_WINDS"},"data":[0,0,0,0,0,0,0,0,0,0,0,0,0,0,0,0,0,0,0,0,0,0,0,0,0,0,0,0,0,0,0,0,0,0,0,0,0,0,0,0,0,0,0,0,0,0,0,0,0,0,0,0,0,0,0,0,0,0,-3.0068,-3.0068,0,-3.0109,-3.0109,-3.011,-3.0092,-3.0091,-3.009,-3.0089,-3.013,-3.0132,-3.0134,0,0,0,0,0,0,0,0,0,0,0,0,0,-2.9976,-2.9978,-3.0068,-3.0069,-3.0069,-3.0109,-3.0109,-3.011,-3.0092,-3.0091,-3.0089,-3.0088,-3.0129,-3.0132,-3.0134,0,0,0,0,0,0,0,0,0,0,0,0,0,-3.0016,-2.9978,-3.0068,-3.0065,-3.0065,-3.0109,-3.0109,-3.011,-3.0092,-3.0091,-3.0089,-3.0088,-3.0129,-3.0132,-3.0135,-3.0184,0,0,-3.0144,-3.0145,0,0,0,0,0,0,0,0,-3.0014,-3.002,-3.0065,-3.0065,-3.0065,-3.0094,-3.0092,-3.0135,-3.0093,-3.0082,-3.0089,-3.0087,-3.0119,-3.0123,-3.0134,-3.0185,-3.0187,-3.0144,-3.0146,-3.0147,-3.0148,0,0,0,0,0,0,0,-3.0011,-3.0018,-3.0084,-3.0065,-3.0066,-3.0062,-3.0066,-3.01,-3.0108,-3.0083,-3.0081,-3.0087,-3.0119,-3.0131,-3.0135,-3.0188,-3.0144,-3.0147,-3.0149,-3.015,-3.0284,-3.0286,0,0,0,0,0,0,-3.0008,-3.0015,-3.0083,-3.0085,-3.0035,-3.0065,-3.0069,-3.0086,-3.0108,-3.011,-3.0088,-3.0086,-3.0126,-3.0131,-3.0136,-3.0196,-3.0147,-3.015,-3.0152,-3.0283,-3.0285,-3.0287,0,0,0,0,0,0,-3.0006,-3.0014,-3.0081,-3.005,-3.0058,-3.0068,-3.0087,-3.0088,-3.01,-3.0112,-3.0113,-3.0098,-3.0125,-3.0132,-3.0172,-3.0197,-3.0151,-3.0154,-3.028,-3.0283,-3.0286,-3.0315,0,0,0,0,0,0,-3.0004,-3.0014,-3.0032,-3.0051,-3.006,-3.0116,-3.0088,-3.009,-3.0105,-3.0102,-3.0122,-3.0124,-3.0125,-3.0168,-3.0175,-3.02,-3.0157,-3.0278,-3.0282,-3.0285,-3.0312,-3.0318,-3.0323,0,0,0,0,0,-3.0001,-3.0038,-3.0033,-3.0041,-3.0083,-3.0118,-3.0123,-3.0123,-3.0107,-3.0126,-3.0134,-3.0123,-3.0194,-3.0172,-3.0181,-3.0206,-3.0277,-3.0281,-3.0285,-3.0309,-3.0317,-3.0323,0,0,0,0,0,0,-3.002,-3.004,-3.0035,-3.0079,-3.0097,-3.0115,-3.0138,-3.0131,-3.0154,-3.0151,-3.015,-3.0155,-3.0197,-3.0206,-3.0182,-3.0256,-3.0233,-3.0238,-3.0248,-3.0256,-3.0262,-3.0258,-3.0159,0,0,0,0,0,-3.003,-3.0057,-3.0073,-3.0111,-3.012,-3.0128,-3.0143,-3.0142,-3.016,-3.0167,-3.0179,-3.0197,-3.0223,-3.024,-3.0265,-3.0314,-3.0318,-3.0336,-3.0342,-3.0347,-3.0351,-3.0379,-3.0387,-3.0299,-3.0299,-3.0299,0,0,-3.005,-3.0064,-3.0081,-3.0115,-3.0129,-3.0157,-3.0134,-3.0164,-3.0185,-3.0172,-3.0211,-3.0221,-3.0241,-3.0286,-3.0307,-3.0295,-3.0377,-3.0352,-3.0356,-3.0357,-3.0384,-3.0392,-3.04,-3.0302,-3.0302,-3.0301,0,0,-3.0101,-3.0114,-3.0148,-3.0163,-3.0184,-3.019,-3.0198,-3.0217,-3.0223,-3.0263,-3.0254,-3.028,-3.0325,-3.034,-3.0354,-3.0415,-3.0406,-3.0423,-3.0453,-3.048,-3.0487,-3.0493,-3.0515,-3.0523,-3.0428,-3.0428,-3.0428,0,-3.0123,-3.0164,-3.0166,-3.0197,-3.0213,-3.0204,-3.0239,-3.0253,-3.0282,-3.0293,-3.028,-3.0338,-3.0351,-3.0401,-3.0416,-3.0427,-3.0437,-3.0419,-3.0486,-3.0492,-3.0498,-3.0519,-3.0527,-3.043,-3.043,-3.0429,-3.0429,0,-3.019,-3.022,-3.0244,-3.0273,-3.0292,-3.0325,-3.0332,-3.0351,-3.035,-3.0357,-3.0399,-3.0415,-3.0444,-3.0456,-3.0454,-3.0506,-3.0498,-3.0486,-3.0462,-3.0508,-3.0528,-3.0536,-3.0432,-3.0432,-3.0431,-3.0431,0,0,-3.0251,-3.0283,-3.0292,-3.0305,-3.033,-3.0353,-3.0387,-3.0416,-3.0432,-3.0454,-3.0482,-3.0522,-3.0512,-3.0528,-3.0528,-3.0552,-3.06,-3.0537,-3.0538,-3.0548,-3.0659,-3.0667,-3.0676,-3.0596,-3.0597,-3.0598,-3.0657,0,-3.0303,-3.0362,-3.0366,-3.0418,-3.0446,-3.044,-3.047,-3.0489,-3.0497,-3.0523,-3.0532,-3.0561,-3.0545,-3.0555,-3.0579,-3.0589,-3.0622,-3.0585,-3.0622,-3.0623,-3.0615,-3.0686,-3.0694,-3.0748,-3.0664,-3.0666,-3.0667,0,-3.0371,-3.0395,-3.0451,-3.0474,-3.0486,-3.0512,-3.054,-3.0564,-3.0587,-3.0591,-3.0611,-3.0609,-3.0645,-3.0621,-3.0671,-3.0646,-3.0661,-3.0669,-3.0672,-3.0674,-3.0646,-3.0689,-3.0766,-3.0773,-3.0679,-3.0678,-3.0677,0,-3.041,-3.0457,-3.0496,-3.0509,-3.0536,-3.0555,-3.0568,-3.0589,-3.0606,-3.0631,-3.0643,-3.0672,-3.0687,-3.071,-3.0717,-3.0699,-3.0766,-3.0743,-3.0771,-3.0771,-3.0784,-3.0783,-3.0863,-3.0796,-3.0796,-3.0796,-3.0796,0,-3.0467,-3.0501,-3.0515,-3.0539,-3.0578,-3.0583,-3.0622,-3.0633,-3.0653,-3.068,-3.0677,-3.0703,-3.071,-3.0738,-3.0743,-3.0784,-3.0791,-3.0796,-3.0797,-3.0796,-3.0795,-3.0805,-3.0801,-3.0798,-3.0798,-3.0797,-3.0797,0,-3.0516,-3.0526,-3.0569,-3.0593,-3.06,-3.0628,-3.0648,-3.0672,-3.0682,-3.0716,-3.0725,-3.074,-3.0772,-3.0782,-3.082,-3.0824,-3.0872,-3.087,-3.0864,-3.0864,-3.0891,-3.0888,-3.098,-3.0992,-3.0918,-3.0919,-3.0919,0,-3.0551,-3.0577,-3.0605,-3.0623,-3.0636,-3.0666,-3.0684,-3.0692,-3.0711,-3.0741,-3.0761,-3.0794,-3.0819,-3.0872,-3.0886,-3.0917,-3.0915,-3.0945,-3.0919,-3.0918,-3.0915,-3.0913,-3.0916,-3.0949,-3.095,-3.095,-3.0951,0,-3.0612,-3.0617,-3.0643,-3.0673,-3.0696,-3.0719,-3.0742,-3.0757,-3.0768,-3.0791,-3.0824,-3.0845,-3.0885,-3.0918,-3.0949,-3.0963,-3.0959,-3.096,-3.0968,-3.0966,-3.0961,-3.0964,-3.0876,-3.0957,-3.0956,-3.0956,-3.0955,-3.0955,-3.0655,-3.0679,-3.0702,-3.0733,-3.0751,-3.0773,-3.0797,-3.0811,-3.0839,-3.0872,-3.0876,-3.0912,-3.0936,-3.0978,-3.0994,-3.1023,-3.1014,-3.1025,-3.1028,-3.1031,-3.1033,-3.0958,-3.1029,-3.1028,-3.1028,-3.1028,-3.1028,0,-3.0716,-3.0731,-3.076,-3.0792,-3.0817,-3.0813,-3.0838,-3.0859,-3.0891,-3.0914,-3.0941,-3.098,-3.1012,-3.103,-3.1063,-3.1083,-3.1082,-3.1091,-3.1089,-3.1092,-3.1039,-3.1029,-3.1091,-3.1091,-3.1091,-3.1091,-3.1091,-3.1091,-3.075,-3.0791,-3.0799,-3.0849,-3.0864,-3.09,-3.0915,-3.0936,-3.0954,-3.0998,-3.1025,-3.1037,-3.1059,-3.1093,-3.1123,-3.1128,-3.1139,-3.1149,-3.1153,-3.1102,-3.1096,-3.109,-3.108,-3.1152,-3.1152,-3.1204,-3.1204,-3.1205]},{"header":{"parameterUnit":"m.s-1","parameterCategory":1,"la1":30.2991,"la2":30.254,"lo1":-89.0895,"lo2":-89.0444,"dy":0.0017,"dx":0.0017,"nx":28,"ny":28,"refTime":"2023-08-22T21:00:00:Z","depth":0,"parameterNumber":3,"parameterNumberName":"V-component_of_WINDS"},"data":[0,0,0,0,0,0,0,0,0,0,0,0,0,0,0,0,0,0,0,0,0,0,0,0,0,0,0,0,0,0,0,0,0,0,0,0,0,0,0,0,0,0,0,0,0,0,0,0,0,0,0,0,0,0,0,0,0,0,4.3405,4.3405,0,4.338,4.338,4.338,4.3371,4.3371,4.3371,4.3371,4.3341,4.334,4.3339,0,0,0,0,0,0,0,0,0,0,0,0,0,4.3444,4.3443,4.3405,4.3405,4.3405,4.338,4.338,4.338,4.3371,4.3371,4.3371,4.3371,4.3341,4.334,4.3339,0,0,0,0,0,0,0,0,0,0,0,0,0,4.3423,4.3443,4.3406,4.3398,4.3397,4.338,4.338,4.3379,4.3371,4.3371,4.3371,4.3371,4.3342,4.334,4.3339,4.3327,0,0,4.3335,4.3334,0,0,0,0,0,0,0,0,4.3425,4.3422,4.3399,4.3398,4.3397,4.3379,4.3382,4.3362,4.3371,4.338,4.3371,4.3371,4.3353,4.3351,4.3346,4.3326,4.3325,4.3335,4.3334,4.3333,4.3333,0,0,0,0,0,0,0,4.3426,4.3423,4.3395,4.3399,4.3397,4.3394,4.3392,4.3378,4.3366,4.3379,4.3379,4.3376,4.3353,4.3347,4.3345,4.3324,4.3335,4.3334,4.3333,4.3332,4.3296,4.3296,0,0,0,0,0,0,4.3429,4.3424,4.3396,4.3395,4.3412,4.3394,4.3391,4.3384,4.3366,4.3364,4.3376,4.3376,4.3349,4.3346,4.3344,4.333,4.3333,4.3332,4.3331,4.3296,4.3296,4.3296,0,0,0,0,0,0,4.343,4.3427,4.3397,4.3409,4.3405,4.3393,4.3386,4.3384,4.3378,4.3364,4.3361,4.3373,4.3349,4.3346,4.3332,4.3329,4.3331,4.333,4.3296,4.3296,4.3296,4.3302,0,0,0,0,0,0,4.3431,4.3427,4.3423,4.3409,4.3405,4.3387,4.3386,4.3383,4.3376,4.3376,4.336,4.3357,4.3349,4.3334,4.3331,4.3327,4.3329,4.3296,4.3296,4.3296,4.3302,4.3302,4.3302,0,0,0,0,0,4.3433,4.3425,4.3423,4.3419,4.34,4.3387,4.3384,4.3376,4.3376,4.3372,4.3363,4.3358,4.333,4.3333,4.3329,4.3325,4.3296,4.3296,4.3296,4.3302,4.3302,4.3302,0,0,0,0,0,0,4.3436,4.3422,4.342,4.3408,4.3399,4.3385,4.3379,4.3376,4.3365,4.3365,4.3354,4.335,4.3338,4.333,4.3334,4.3314,4.3313,4.3312,4.3319,4.3319,4.3319,4.3321,4.3328,0,0,0,0,0,4.3436,4.3428,4.3416,4.3406,4.3402,4.3391,4.3385,4.338,4.337,4.3365,4.3355,4.3344,4.3333,4.3325,4.3314,4.3301,4.3298,4.3296,4.3296,4.3296,4.3295,4.3289,4.3288,4.3294,4.3294,4.3294,0,0,4.3434,4.3426,4.3421,4.3406,4.3399,4.339,4.3388,4.3378,4.3371,4.3363,4.335,4.3343,4.333,4.3317,4.3311,4.331,4.3293,4.3296,4.3296,4.3295,4.3288,4.3288,4.3287,4.3294,4.3294,4.3294,0,0,4.3427,4.342,4.3412,4.3405,4.3394,4.3387,4.3386,4.3373,4.3368,4.3356,4.335,4.3341,4.3322,4.3314,4.3307,4.3299,4.3294,4.3296,4.3295,4.3289,4.3289,4.3288,4.3286,4.3285,4.3295,4.3295,4.3295,0,4.3426,4.3414,4.3407,4.3399,4.3393,4.3387,4.3379,4.3372,4.3357,4.3353,4.3352,4.333,4.332,4.3306,4.3305,4.3299,4.3296,4.3297,4.3289,4.3289,4.3288,4.3286,4.3285,4.3295,4.3295,4.3295,4.3295,0,4.3413,4.3405,4.3399,4.3387,4.3381,4.3372,4.3364,4.3358,4.3354,4.3348,4.3335,4.3325,4.3312,4.3308,4.3303,4.3294,4.3294,4.3292,4.3291,4.3288,4.3286,4.3285,4.3295,4.3295,4.3295,4.3295,0,0,4.3406,4.3393,4.3391,4.3386,4.3375,4.3367,4.3359,4.3348,4.3343,4.3334,4.3326,4.3311,4.331,4.3303,4.3297,4.3292,4.3287,4.329,4.329,4.329,4.3276,4.3278,4.3277,4.3285,4.3284,4.3284,4.3277,0,4.3397,4.3383,4.3378,4.3365,4.3358,4.3354,4.3346,4.3338,4.3332,4.3324,4.3318,4.3308,4.3307,4.3302,4.3297,4.3289,4.3284,4.3289,4.3277,4.3276,4.3279,4.3275,4.3276,4.327,4.3276,4.3276,4.3276,0,4.3385,4.3377,4.3365,4.3356,4.3352,4.3346,4.3337,4.3329,4.332,4.3317,4.331,4.3305,4.3295,4.3296,4.3283,4.3287,4.3282,4.3277,4.3277,4.3274,4.3275,4.3273,4.3268,4.3267,4.3274,4.3274,4.3275,0,4.3381,4.3368,4.3359,4.3355,4.3344,4.334,4.3335,4.3327,4.3321,4.3313,4.3309,4.3299,4.3294,4.3286,4.3279,4.328,4.3267,4.3267,4.3263,4.3263,4.3259,4.3259,4.3253,4.3257,4.3257,4.3257,4.3257,0,4.3371,4.3364,4.3357,4.3352,4.3343,4.3338,4.3329,4.3324,4.3317,4.331,4.3306,4.3299,4.3291,4.3283,4.3277,4.3268,4.3265,4.3261,4.326,4.3262,4.3262,4.3257,4.3257,4.3256,4.3256,4.3257,4.3257,0,4.3365,4.336,4.3351,4.3342,4.334,4.3334,4.3327,4.3321,4.3316,4.3308,4.3305,4.3297,4.3288,4.3281,4.3268,4.3265,4.3255,4.3253,4.3258,4.3257,4.3254,4.3254,4.3244,4.3243,4.3247,4.3247,4.3247,0,4.3359,4.3354,4.3346,4.3341,4.3337,4.333,4.3325,4.332,4.3315,4.3306,4.3301,4.3292,4.3285,4.3271,4.3263,4.3254,4.3252,4.3249,4.325,4.3253,4.3252,4.3252,4.3252,4.3248,4.3248,4.3248,4.3248,0,4.3349,4.3348,4.3341,4.3335,4.3329,4.3323,4.3317,4.3314,4.3308,4.3302,4.3294,4.3288,4.3277,4.3268,4.3259,4.3253,4.3249,4.3249,4.3247,4.3248,4.3252,4.325,4.3257,4.3248,4.3248,4.3248,4.3248,4.3248,4.3343,4.3338,4.3332,4.3326,4.3321,4.3316,4.3311,4.3306,4.33,4.3291,4.3288,4.328,4.3272,4.326,4.3254,4.3247,4.3247,4.3245,4.3244,4.3244,4.3244,4.3254,4.3245,4.3245,4.3245,4.3245,4.3245,0,4.3333,4.3329,4.3323,4.3316,4.3311,4.331,4.3304,4.33,4.3293,4.3287,4.328,4.3271,4.3263,4.3256,4.3248,4.3244,4.3242,4.3241,4.3241,4.324,4.3245,4.3247,4.3243,4.3243,4.3243,4.3243,4.3243,4.3243,4.3327,4.3319,4.3317,4.3308,4.3304,4.3297,4.3293,4.3289,4.3284,4.3275,4.3269,4.3265,4.3258,4.325,4.3243,4.3241,4.3238,4.3238,4.3235,4.3239,4.324,4.324,4.3242,4.3237,4.3237,4.3232,4.3232,4.3232]}]]